Wind_Speed
40 42 47 50 52 52 53 53 53 52 50 48 48 46 43 41 36 31 29 29 28 28 29 29 30 33 33 33 34 36 36 35 34 32 30 28 28 28 28 28 28 30 31 30 31 32 31 28 26 24 24 24 25 26 25 24 22 21 20 19 18 17 15 14 12 11 11 12 14 14 14 13 12 12 12 14 15 16 18 19 20 22 22 23 23 23 23
43 45 46 46 47 50 51 51 51 51 51 49 47 44 41 39 36 33 29 27 27 28 29 29 30 32 33 33 35 36 36 35 33 31 29 28 28 28 28 26 26 26 28 30 32 34 33 31 28 25 24 25 25 26 25 24 23 23 22 21 19 18 16 15 15 14 13 13 13 14 14 14 13 13 13 14 15 16 17 19 20 21 22 23 24 25 25
41 42 42 42 44 46 46 47 48 48 48 48 46 43 40 36 33 30 28 27 28 29 30 30 32 33 33 34 35 35 36 35 32 30 28 28 29 28 26 23 22 22 24 27 30 33 34 33 30 26 25 25 25 26 25 24 24 24 23 22 21 19 18 18 17 16 15 15 14 14 15 15 15 14 14 15 15 17 18 19 20 21 22 23 25 26 27
38 39 40 40 41 42 43 44 44 45 45 44 42 40 37 34 31 30 30 30 30 31 32 32 32 33 34 34 35 36 36 34 31 29 28 29 29 28 25 22 21 21 23 26 28 30 32 32 30 27 25 25 25 25 25 25 25 24 24 23 23 22 20 20 19 18 18 17 16 16 16 16 16 16 16 16 17 18 18 19 20 21 22 23 25 26 27
36 38 37 37 38 40 43 44 42 42 42 41 40 37 34 31 31 32 32 32 32 33 33 33 33 33 34 34 35 36 36 34 31 29 30 31 30 27 25 24 23 23 23 24 24 25 26 27 27 27 26 25 25 26 26 25 25 25 24 24 24 23 22 21 20 20 19 19 18 18 18 18 18 18 18 18 18 19 20 20 21 21 22 23 24 25 26
33 35 34 35 37 41 43 43 41 40 39 38 37 36 34 32 31 33 33 33 34 33 32 33 33 33 34 34 35 37 37 35 32 31 32 32 30 28 28 27 26 25 24 22 20 20 21 23 25 27 27 27 27 27 25 25 25 24 24 24 24 23 22 21 21 21 21 21 21 20 20 20 20 20 20 21 21 21 21 21 22 23 23 24 25 26 27
31 33 33 36 38 40 40 40 39 38 36 35 35 36 36 34 32 33 33 33 34 33 32 32 33 33 34 34 35 36 36 35 34 33 34 33 30 29 30 30 28 27 24 21 18 18 19 21 23 25 27 27 27 27 26 25 24 24 24 23 23 23 22 22 22 22 22 22 22 22 22 22 22 23 23 23 23 23 23 23 24 24 25 25 26 27 29
31 32 33 36 36 35 35 36 36 36 35 36 36 37 38 36 33 33 34 34 35 33 32 32 32 32 34 35 35 35 36 35 34 34 35 34 32 31 31 32 31 30 27 24 22 21 21 22 24 25 26 27 27 26 26 25 24 24 23 23 23 23 23 23 23 23 23 23 23 23 24 25 24 24 24 24 24 25 25 25 26 26 26 27 28 29 30
31 32 32 32 30 30 33 35 35 35 35 35 36 36 36 36 35 34 35 36 36 34 33 32 32 32 33 34 34 35 36 36 35 35 36 36 34 32 32 32 33 33 32 30 29 27 26 26 26 26 27 29 28 27 26 25 25 24 24 24 25 26 26 25 25 25 25 25 25 25 26 26 25 25 24 25 25 26 26 27 27 27 27 28 29 30 31
29 29 29 29 28 29 32 33 33 33 32 31 32 32 33 34 34 33 34 36 37 36 34 33 33 32 32 32 33 34 36 36 35 35 36 35 34 31 30 30 32 33 33 32 31 30 29 29 28 27 27 28 30 30 28 27 26 26 27 27 28 29 30 30 30 29 29 28 28 28 28 27 26 26 26 26 27 27 28 28 29 28 29 30 31 31 32
25 26 26 27 29 29 30 30 31 30 29 29 30 31 32 34 33 31 31 32 35 37 36 34 34 33 33 33 33 34 35 35 35 35 35 34 33 31 30 30 30 31 31 31 30 30 30 28 27 25 24 25 28 30 31 30 30 29 29 30 32 33 34 33 32 32 32 31 31 31 30 29 28 27 28 28 28 29 29 30 30 30 30 30 30 30 30
22 25 25 25 27 28 28 28 28 28 28 28 30 32 35 35 34 32 31 30 32 36 38 37 35 34 34 34 34 35 35 35 35 35 35 34 33 33 32 31 30 29 29 29 29 29 28 27 26 25 24 24 26 28 31 32 32 31 31 33 34 32 31 30 29 29 30 31 31 31 31 30 29 29 29 29 30 31 31 31 31 31 30 28 28 28 29
21 23 24 23 24 26 26 26 27 26 25 25 27 31 34 36 36 35 33 32 31 32 36 37 36 36 35 33 34 35 36 35 35 35 35 35 35 34 34 32 31 30 30 30 29 28 28 28 27 27 26 26 25 27 29 30 31 32 33 34 34 31 29 27 27 27 27 28 29 30 31 31 30 29 29 29 30 30 31 31 30 29 29 28 27 28 28
22 22 22 21 23 24 23 24 25 25 25 26 27 27 29 34 37 37 35 35 33 31 32 33 34 36 36 36 36 37 37 36 36 36 36 36 36 35 34 33 31 31 31 30 29 28 28 28 28 28 29 28 26 27 29 30 31 32 33 33 34 34 31 28 27 26 26 26 28 30 30 30 29 28 28 28 29 29 30 30 29 29 29 29 29 29 28
22 22 22 22 24 24 24 24 26 27 28 27 26 25 25 28 34 37 37 36 35 32 31 31 32 34 35 36 36 37 36 34 34 34 35 35 34 32 32 31 31 30 30 29 28 28 28 29 29 30 31 30 29 28 29 31 32 33 33 33 34 35 33 30 29 27 26 26 26 28 29 29 28 27 28 29 30 30 30 30 29 29 29 29 29 29 28
23 24 24 23 24 25 25 26 27 27 26 24 23 24 24 24 27 31 35 36 36 34 33 33 34 34 34 34 33 32 30 29 29 31 32 32 31 30 29 28 28 28 27 27 27 28 28 29 30 31 31 31 30 30 31 32 33 33 33 32 32 33 33 32 32 30 28 27 27 27 28 28 28 27 28 30 31 31 30 29 28 28 28 28 29 29 28
21 22 22 22 23 25 26 26 25 25 25 24 24 24 24 23 23 25 27 30 33 35 35 35 35 35 35 33 31 29 27 27 28 29 30 30 29 27 26 26 26 26 26 26 27 28 28 29 30 31 31 31 31 32 32 32 31 30 30 29 29 30 30 29 29 29 29 29 29 28 28 28 28 28 29 31 32 31 30 29 28 28 28 28 28 29 28
20 20 21 22 23 24 25 25 25 24 24 23 23 23 23 23 23 23 23 24 27 30 33 34 35 35 35 33 31 29 28 28 29 30 30 29 28 27 26 27 27 27 27 28 29 30 31 31 31 32 33 33 32 33 34 33 30 29 29 28 28 29 29 29 28 28 28 28 29 29 28 28 27 28 29 31 31 31 30 29 28 28 28 28 28 28 27
19 20 22 23 24 25 26 26 25 25 24 24 23 23 23 23 23 24 24 24 25 26 27 29 31 32 32 33 33 32 32 32 33 33 32 32 31 30 30 30 31 30 30 31 33 34 34 35 35 35 35 35 35 36 37 37 35 33 32 31 31 31 31 31 30 30 30 29 29 28 28 28 28 29 30 31 31 30 30 29 29 29 28 28 28 28 27
20 21 22 24 25 26 26 26 26 26 25 25 25 24 24 25 25 25 25 26 26 26 26 26 27 28 29 31 32 32 33 34 34 35 34 34 33 33 34 35 36 36 35 35 35 36 37 37 37 37 37 37 38 39 40 41 40 38 36 35 34 32 31 30 30 30 30 30 30 29 29 28 28 29 30 30 31 31 30 30 29 29 29 29 28 27 26
19 20 21 24 26 27 27 27 27 27 27 26 27 26 26 26 26 26 26 27 28 28 29 29 29 29 29 29 29 30 31 32 33 33 33 33 33 34 35 37 38 38 38 37 37 37 38 38 39 39 39 39 40 42 43 43 43 42 41 39 37 35 33 31 30 30 31 31 31 31 31 30 29 29 29 30 31 31 30 30 29 29 29 28 27 26 25
17 18 19 22 24 26 27 27 28 29 28 28 27 27 26 25 25 25 26 27 28 29 29 30 30 30 30 29 29 30 31 32 32 32 32 33 33 33 34 35 37 38 38 38 38 38 39 39 39 39 40 41 42 43 44 44 44 43 43 42 40 38 37 35 34 33 33 33 33 33 34 34 33 32 31 32 31 31 30 30 30 30 30 28 26 25 25
16 17 18 19 21 23 24 25 26 27 27 26 26 26 25 25 24 25 25 26 27 28 29 29 30 30 31 31 31 32 32 33 33 33 33 33 33 33 34 35 36 37 38 38 38 38 38 39 39 39 40 41 42 43 43 44 44 44 44 43 42 41 41 40 39 38 38 37 36 35 35 36 35 34 33 32 32 31 31 31 31 30 29 27 26 26 28
15 16 17 17 18 20 21 22 23 23 24 24 24 25 25 25 25 25 26 26 26 27 27 29 30 31 32 32 33 33 33 33 33 33 33 33 33 33 34 34 35 35 36 37 37 37 37 37 37 38 39 40 41 41 42 43 43 44 44 44 43 43 43 43 44 43 41 39 38 37 36 36 37 36 35 34 33 33 33 32 31 30 30 29 28 28 30
17 17 17 17 18 19 19 20 21 21 22 23 23 24 24 25 26 26 26 26 27 27 27 28 29 30 31 32 32 33 33 33 33 32 32 33 33 33 33 33 33 33 34 34 35 35 35 35 35 36 37 38 39 39 40 40 41 42 43 43 43 43 44 45 46 45 42 40 39 38 37 37 37 37 37 36 35 34 34 34 33 32 32 32 31 31 32
20 20 20 20 20 20 21 21 21 21 21 21 22 23 23 24 25 26 26 27 28 28 28 28 29 29 30 30 31 31 32 32 31 31 31 31 32 32 32 31 31 31 32 32 33 33 33 33 34 34 35 36 37 38 38 38 39 40 40 41 41 41 42 43 45 45 43 41 40 38 37 36 36 36 37 37 36 35 34 35 35 35 34 34 35 35 35
25 24 24 24 24 24 24 25 25 25 24 24 24 24 25 26 27 27 28 28 28 28 29 29 30 30 30 30 30 30 30 31 31 31 31 31 32 32 33 32 32 32 32 33 33 33 33 33 32 33 33 33 34 36 36 37 37 37 37 37 37 37 38 39 40 41 41 40 39 38 37 37 38 39 39 38 37 36 36 36 36 37 36 37 38 38 38
27 28 28 28 28 28 29 29 29 29 28 27 27 27 27 28 29 29 29 29 28 28 29 29 30 30 30 31 31 31 31 32 32 32 32 33 33 34 34 35 35 34 34 34 34 33 33 33 32 32 32 32 32 33 34 35 36 35 34 34 33 34 35 35 35 36 38 38 38 38 38 39 40 41 41 40 39 38 37 37 37 38 39 40 40 40 40
26 27 28 29 29 30 31 31 32 31 31 30 29 29 29 29 30 30 30 29 29 29 29 29 29 29 29 30 31 32 32 33 33 33 34 34 34 34 35 35 36 35 35 35 34 34 34 33 33 32 32 32 33 33 34 35 35 34 33 32 32 33 33 32 32 33 34 34 35 36 37 38 38 38 38 39 40 39 38 38 38 39 41 43 44 44 43
21 22 24 25 26 28 29 30 31 31 31 30 29 29 29 29 29 29 29 29 29 28 28 27 27 27 27 28 28 29 30 31 32 33 33 33 33 33 33 34 34 35 35 35 35 35 34 34 33 33 32 33 33 34 34 35 35 35 34 33 33 34 34 33 32 32 32 31 32 34 35 35 35 35 36 38 38 38 39 39 39 40 40 42 44 46 46
17 18 19 20 22 23 25 26 27 27 27 27 27 27 27 27 27 27 27 26 26 25 25 24 24 24 24 25 25 25 26 27 28 30 31 32 32 32 32 32 33 33 34 34 34 34 33 32 32 32 32 32 33 33 34 34 35 35 35 34 35 36 36 35 34 33 32 31 32 33 33 33 34 35 36 37 37 38 39 40 40 41 39 38 38 40 42
16 16 17 17 18 19 20 21 22 22 22 23 23 23 23 23 23 23 23 23 23 23 22 22 22 23 23 23 23 24 24 24 25 27 28 30 31 31 31 32 32 32 32 32 32 32 32 31 31 31 32 32 32 33 33 33 34 34 33 33 33 34 35 35 34 33 32 32 31 31 31 32 33 34 35 36 37 38 39 39 40 40 38 36 34 35 37
16 16 16 17 17 18 18 18 19 19 20 20 20 20 20 20 20 20 20 20 20 20 21 21 21 22 23 23 24 24 25 25 26 26 27 28 29 30 31 32 32 32 32 32 32 32 32 32 31 31 31 31 31 32 32 33 33 33 31 30 31 32 32 32 32 32 31 31 30 29 29 30 32 33 35 36 37 38 38 39 39 39 38 36 35 36 38
18 18 17 17 17 17 17 17 18 19 19 19 19 19 19 19 19 19 18 19 19 19 19 20 22 23 23 24 24 24 25 26 26 27 27 28 29 29 30 31 32 32 33 33 33 33 33 32 32 31 31 31 31 31 31 32 32 31 29 28 29 30 30 30 31 31 30 30 29 29 29 30 31 33 34 35 36 36 37 37 38 38 37 36 36 37 38
21 20 19 19 19 19 19 19 19 20 20 20 20 20 20 20 19 19 19 19 19 19 20 21 22 23 23 23 23 23 24 25 26 27 28 28 29 30 30 31 31 31 32 32 32 32 31 31 30 30 30 30 30 29 30 30 30 28 26 26 27 28 28 28 29 29 29 29 29 29 29 31 32 33 33 34 34 35 35 36 37 37 37 37 37 38 39
22 22 22 21 21 21 21 21 21 21 21 21 21 21 21 21 21 21 21 21 21 22 22 23 23 23 23 23 22 23 23 24 25 26 27 28 29 30 30 31 31 31 31 31 31 30 29 29 28 28 29 29 28 28 28 28 27 26 24 24 26 27 28 27 28 28 29 29 29 29 30 31 31 32 33 33 34 34 35 36 37 37 38 38 39 39 39
21 22 22 23 23 22 22 22 22 22 22 22 22 22 22 22 22 22 23 23 23 24 24 23 23 24 24 24 23 23 24 24 25 26 27 28 29 29 30 31 31 32 32 31 31 30 29 28 28 28 29 28 28 28 28 27 26 25 25 25 26 27 28 27 27 28 28 29 29 30 30 30 31 32 33 33 34 35 36 37 37 37 37 38 38 38 38
20 21 21 22 22 22 22 22 22 22 22 22 22 22 22 23 23 23 23 24 24 24 24 24 24 24 24 24 24 24 24 24 24 24 25 25 26 28 28 29 30 30 31 31 30 30 29 28 28 29 29 28 28 28 28 28 27 27 26 27 27 28 28 28 28 28 28 28 29 29 30 30 31 32 33 34 35 35 36 37 37 37 37 37 37 37 37
19 20 20 21 21 22 22 21 21 21 21 21 21 21 21 21 21 21 21 22 22 22 22 22 22 23 23 23 23 22 22 21 21 22 22 22 23 24 25 26 26 27 28 28 29 28 28 28 28 28 28 28 28 28 29 29 29 28 28 28 28 28 28 28 28 28 28 28 28 29 29 30 31 32 33 34 35 36 36 37 37 37 38 38 38 39 39
18 19 19 20 20 20 20 20 20 20 20 20 20 20 20 20 21 21 21 21 21 21 21 20 20 20 20 20 20 20 20 20 20 20 21 20 20 21 21 22 23 24 25 25 26 25 25 25 25 25 25 25 26 26 27 27 27 27 27 28 28 28 28 28 28 28 29 29 30 30 31 32 33 34 34 35 35 36 36 37 37 37 38 38 39 39 39
16 17 18 19 20 20 19 19 19 19 19 19 20 20 20 21 21 22 22 21 21 20 20 19 19 19 18 19 19 19 19 19 20 20 20 20 20 20 20 20 21 21 22 22 22 22 21 22 22 22 22 22 23 23 24 25 25 25 26 27 27 28 28 29 29 30 30 30 31 31 32 33 33 34 35 35 35 36 36 37 38 38 38 38 38 38 38
16 16 17 18 18 18 18 18 18 18 18 19 19 19 19 19 19 20 20 20 19 19 18 18 18 18 18 18 19 19 19 19 19 19 20 19 19 19 19 19 19 19 19 20 20 20 19 20 20 20 21 21 22 23 23 24 25 26 26 27 28 28 29 29 30 30 30 31 31 32 32 33 34 34 35 36 37 37 38 39 40 41 41 41 40 40 39
15 16 17 17 18 18 17 17 17 17 17 17 18 17 17 16 17 17 17 17 17 17 18 18 18 18 18 18 18 18 18 17 17 17 18 18 18 18 18 18 18 18 18 18 18 18 18 19 19 20 20 21 22 23 23 24 25 25 26 27 28 28 29 29 30 30 31 32 32 33 33 34 35 36 36 37 38 39 39 40 41 42 42 41 40 38 37
15 16 17 17 18 18 18 17 16 16 17 17 18 17 16 16 16 16 16 17 17 17 18 18 18 17 17 18 17 17 17 16 16 16 16 16 17 17 17 17 17 17 17 17 18 18 18 19 19 20 21 21 22 23 23 24 25 25 26 27 28 28 29 29 30 31 32 32 33 33 34 35 35 35 35 36 37 37 37 37 37 37 37 36 36 36 37
13 15 16 17 18 19 18 18 17 17 16 17 17 18 18 19 18 18 17 17 17 17 17 17 17 17 17 17 17 16 16 16 16 16 16 16 16 16 17 17 17 18 18 18 18 19 19 19 20 20 21 22 23 23 24 25 25 26 27 28 29 29 30 31 31 32 32 33 33 34 34 34 35 35 36 36 36 35 34 32 31 32 33 34 35 36 37
11 12 14 16 18 19 19 18 18 17 17 17 18 18 20 20 20 19 18 17 17 17 17 17 17 18 18 17 17 17 17 16 16 16 17 17 17 17 18 18 18 18 19 19 19 20 20 20 21 21 22 22 23 24 25 26 26 27 28 29 30 31 31 32 33 33 33 34 34 35 35 36 36 36 36 35 34 32 32 31 32 33 34 33 33 33 34
10 10 11 13 16 17 18 18 18 18 18 18 18 19 20 20 21 21 20 19 18 18 18 18 18 19 19 18 18 18 18 18 18 18 18 18 18 19 19 19 19 19 19 19 19 19 19 19 19 20 20 20 21 22 23 24 24 25 26 27 28 28 29 30 31 31 32 33 33 33 33 33 33 32 32 31 30 31 31 32 32 32 32 31 30 30 30
10 10 10 11 13 14 16 17 17 18 18 17 18 18 19 20 21 21 21 20 20 20 20 20 20 20 20 20 19 19 19 19 19 18 18 18 18 18 18 18 18 17 17 16 15 15 15 15 16 16 16 17 17 18 19 19 20 21 21 22 23 23 24 24 24 25 25 26 26 27 27 27 28 28 28 29 29 30 30 30 29 29 28 27 27 26 26
10 10 11 11 12 13 14 15 16 16 17 17 17 18 18 19 20 21 21 21 21 21 21 21 21 21 20 20 20 19 19 18 18 17 16 16 16 16 15 15 14 13 12 11 11 11 11 11 12 12 13 13 14 14 14 15 15 15 16 17 17 18 18 19 19 19 19 20 20 21 22 22 23 24 24 25 25 25 25 25 25 25 24 24 23 23 23
11 11 11 11 12 13 14 14 14 15 15 16 16 17 18 18 19 19 20 20 21 21 21 21 21 20 20 19 19 18 17 16 15 14 14 14 14 13 12 11 10 9 9 9 9 9 9 9 10 11 11 12 12 12 12 13 13 13 14 14 14 15 15 15 15 15 15 16 16 17 18 19 19 20 20 21 21 21 21 22 22 22 22 22 22 23 23
11 11 10 11 12 12 13 13 14 14 15 15 16 16 16 17 17 18 18 19 19 19 20 19 19 18 17 17 16 15 14 13 13 13 13 12 11 11 10 9 9 8 8 9 9 9 9 10 10 11 11 12 12 12 12 13 13 13 13 14 14 14 14 14 14 14 14 14 15 15 16 16 17 17 18 19 19 20 21 21 21 22 22 22 22 22 22
13 12 11 11 12 12 13 13 14 14 15 15 15 15 15 16 16 16 16 16 16 17 17 17 16 15 14 14 13 13 13 12 12 11 11 10 10 10 10 9 9 9 9 9 9 9 9 10 10 11 11 12 12 12 12 12 13 13 14 14 15 15 15 15 15 15 14 14 14 14 14 14 14 15 15 15 16 16 16 17 17 18 18 18 18 18 19
Wind_Direction
180 186 190 188 187 187 187 187 188 189 190 191 194 196 196 195 194 194 198 202 200 196 197 200 198 196 195 192 190 192 191 189 187 188 193 200 206 213 219 224 226 229 231 230 230 230 230 230 233 236 238 235 234 236 240 243 244 241 238 236 235 236 238 241 246 246 242 237 233 233 236 240 244 246 249 254 258 262 263 264 265 265 266 266 265 266 271
183 185 187 187 188 189 189 189 189 189 188 190 192 193 193 193 193 189 186 188 192 192 194 196 196 194 192 190 190 190 188 185 184 186 193 201 208 214 218 222 225 228 230 230 230 231 231 231 234 236 237 235 234 235 239 242 244 244 242 241 239 238 239 241 244 246 248 246 243 241 241 243 246 249 250 253 257 259 262 264 266 267 268 268 268 270 273
184 184 183 185 189 191 192 192 191 190 190 190 190 191 191 191 189 184 176 176 182 185 187 190 192 192 191 189 188 187 184 182 182 187 195 202 209 213 214 216 219 221 224 227 228 230 230 231 232 234 236 235 234 234 236 239 242 244 245 245 244 242 241 241 242 245 247 249 250 250 249 248 250 251 252 254 256 258 260 262 264 267 269 270 271 272 273
182 183 183 184 186 189 192 194 193 192 191 190 189 190 189 186 180 173 170 173 177 179 182 185 188 190 190 187 185 184 182 182 184 190 198 205 209 210 209 212 214 215 220 224 226 226 227 228 230 231 234 234 234 235 236 237 239 242 245 247 246 244 244 244 243 244 247 250 253 255 255 255 255 254 255 256 258 260 261 263 265 267 269 271 272 273 275
180 182 183 182 183 187 191 191 191 191 191 189 188 187 186 184 178 172 170 172 175 177 179 181 184 187 187 184 183 183 183 184 188 194 200 206 208 207 208 212 211 208 211 214 215 217 219 222 225 228 232 233 235 237 238 239 240 242 245 246 246 246 247 247 247 247 249 253 255 257 259 260 260 259 258 259 259 261 263 265 267 268 270 272 274 276 279
178 181 181 181 183 187 188 187 188 190 190 189 188 184 180 179 176 172 171 172 172 175 177 178 180 184 184 183 183 184 185 188 192 197 202 206 207 207 210 212 206 201 201 203 206 211 216 222 226 229 232 235 238 241 242 243 244 245 247 247 247 247 249 250 250 250 252 254 256 260 262 263 263 262 261 260 261 262 264 267 268 270 271 273 276 278 280
176 178 180 181 184 187 187 186 186 186 186 187 186 184 183 181 176 171 172 173 171 173 176 176 176 179 181 183 184 186 188 192 196 200 203 205 206 209 213 212 206 202 202 206 214 223 228 231 233 234 235 238 241 244 246 246 246 246 247 248 248 249 249 250 250 251 253 255 258 262 263 264 263 262 261 261 262 263 265 266 268 270 272 274 276 278 279
176 177 180 182 184 185 186 185 185 184 184 185 184 185 189 189 183 174 173 173 172 173 176 175 174 176 179 182 185 189 192 196 199 202 203 204 207 211 214 214 211 211 213 220 230 238 241 242 241 241 239 239 241 244 245 246 246 247 247 248 250 251 250 251 251 252 255 258 261 263 264 264 263 262 263 263 263 263 264 265 267 269 271 273 275 277 280
173 175 178 180 181 182 184 185 185 185 184 184 184 184 187 189 185 179 175 174 174 175 176 176 175 176 179 181 186 191 195 199 202 203 204 206 209 213 216 217 218 221 226 233 240 245 248 249 249 249 245 242 240 241 242 244 245 247 249 250 252 253 253 253 253 254 257 259 262 263 263 264 264 264 264 263 263 263 264 265 267 268 270 272 274 277 281
170 173 175 176 178 181 182 183 184 184 183 183 183 183 185 185 183 180 178 177 177 177 178 179 179 179 181 184 187 192 196 199 202 204 206 210 214 217 218 220 222 226 232 238 243 246 249 251 252 252 250 247 243 240 240 243 245 250 253 255 256 256 256 256 256 257 259 261 262 263 263 264 264 264 264 262 262 263 264 265 266 267 270 272 275 279 282
165 170 174 177 178 178 179 180 180 179 179 179 179 179 182 182 177 175 175 177 180 182 181 181 182 184 186 187 189 193 197 200 202 205 209 214 218 220 222 225 227 230 234 240 244 247 250 251 250 247 246 247 244 242 241 243 246 250 253 256 258 259 259 259 260 261 261 262 263 263 263 262 263 264 264 263 263 264 265 266 267 269 272 275 279 283 284
163 168 175 180 179 176 177 176 175 174 174 175 175 176 181 180 174 171 173 173 178 184 186 185 186 187 189 191 192 195 199 203 206 210 214 217 220 223 227 232 236 237 239 243 246 248 247 244 241 239 238 239 240 239 239 241 244 247 250 253 256 259 259 259 260 261 261 262 262 262 261 262 263 263 264 263 263 265 267 267 268 271 275 279 282 284 284
162 169 174 178 177 175 175 173 172 172 171 174 177 180 182 181 174 171 173 173 174 179 185 188 191 192 194 196 196 197 201 207 211 216 220 222 225 229 234 239 242 243 243 244 244 244 242 240 237 234 234 237 240 239 239 240 242 245 248 251 254 256 257 259 260 260 261 263 264 264 263 263 263 263 263 264 265 267 269 268 269 273 278 280 281 281 282
162 167 170 172 172 172 172 170 170 170 172 177 183 183 183 183 180 177 175 175 176 178 181 185 190 194 198 201 202 203 206 210 216 221 225 229 231 233 236 238 239 240 240 241 240 240 239 239 239 237 235 239 244 243 241 242 244 246 247 250 252 255 258 261 261 261 262 264 266 267 267 265 262 261 263 264 265 266 266 268 270 275 278 279 280 280 282
163 164 164 168 171 172 171 170 171 175 179 182 183 181 181 184 186 186 186 186 188 188 186 186 188 193 199 203 205 207 210 214 219 223 226 229 230 232 234 235 236 237 239 239 239 239 239 239 240 241 240 243 246 246 244 243 244 246 248 251 254 258 261 262 262 262 263 266 268 269 268 267 264 261 261 262 263 263 265 268 271 274 275 276 278 280 281
169 169 168 169 172 173 173 174 177 181 183 184 182 180 181 183 186 191 196 198 200 199 196 194 194 197 201 205 209 212 216 219 220 221 224 227 228 230 234 236 236 237 239 241 241 242 241 241 241 242 243 245 247 247 246 246 247 249 252 254 256 258 259 260 261 261 263 265 267 268 268 268 266 263 261 262 263 265 267 269 270 270 271 273 275 278 280
173 173 171 169 171 173 175 177 180 181 180 182 185 185 186 188 188 191 195 198 202 204 204 203 204 206 209 214 218 222 224 224 222 222 225 226 228 232 235 235 235 237 240 243 244 245 246 246 245 245 246 246 247 247 247 249 251 252 252 253 254 255 257 259 261 262 262 262 263 264 267 268 267 264 262 262 265 268 269 269 268 269 270 272 273 275 277
175 176 176 175 174 176 178 179 181 182 181 182 185 187 190 193 195 196 196 196 199 204 207 209 211 215 218 221 224 225 226 226 225 226 228 229 232 236 237 235 235 237 240 244 247 248 249 250 251 251 251 250 250 250 249 250 251 252 252 252 253 255 257 261 263 264 263 263 263 264 267 269 268 265 262 263 266 269 270 270 270 270 271 271 272 273 274
181 181 180 179 179 180 182 183 185 187 186 185 186 188 191 194 197 201 202 202 203 205 206 208 211 215 219 221 223 224 226 227 229 231 234 236 237 237 237 237 237 239 243 247 248 249 250 252 253 254 254 254 254 253 252 252 254 256 257 259 260 260 260 261 261 261 263 265 266 268 270 270 267 264 263 265 268 269 270 271 271 271 271 271 271 271 269
182 183 182 181 182 183 186 187 189 191 192 192 192 192 193 195 199 202 205 206 208 210 210 211 212 213 216 219 221 223 225 228 230 234 236 237 236 235 236 237 239 242 246 248 248 248 250 251 253 254 255 255 255 255 255 256 258 261 263 263 264 263 261 260 260 261 264 267 269 269 270 270 268 267 267 268 269 270 270 271 271 271 270 270 270 269 267
176 181 182 183 184 185 187 189 191 193 195 196 197 198 199 200 201 205 208 210 212 214 215 216 217 218 219 220 221 223 225 227 229 232 233 233 233 234 235 237 239 242 245 246 247 248 249 251 252 253 254 255 256 256 257 259 261 263 264 265 265 264 263 262 264 266 268 270 271 270 269 268 268 269 269 268 268 269 269 269 269 269 268 268 268 267 265
174 178 180 182 184 186 188 191 193 196 198 200 201 202 204 205 206 209 212 214 216 218 220 222 223 223 224 224 224 225 227 229 230 232 233 233 233 234 235 237 239 241 243 244 246 247 249 250 251 252 253 254 255 257 258 260 262 263 264 264 265 265 265 266 267 269 270 271 272 271 270 269 268 268 268 267 267 268 268 268 269 269 267 265 264 262 261
182 184 184 183 184 187 190 192 194 196 199 202 203 203 205 207 209 212 214 216 219 220 222 225 227 228 228 229 229 229 231 233 234 235 236 236 236 235 236 237 238 240 243 244 246 247 249 250 251 252 253 254 256 257 259 260 262 263 264 264 265 265 265 266 267 269 270 271 271 270 270 269 269 268 267 266 266 266 267 269 270 268 264 262 261 259 257
194 196 198 196 193 193 194 196 197 198 200 203 206 207 209 211 212 213 214 216 218 220 222 225 228 230 232 233 234 235 236 237 238 239 239 239 238 238 238 239 241 243 245 246 248 249 250 250 251 252 253 255 257 258 260 261 262 262 263 264 265 266 266 267 268 269 271 271 270 268 267 267 268 267 267 266 266 267 268 268 268 265 261 261 261 259 256
207 208 212 214 213 209 205 205 204 204 205 208 211 213 214 215 215 214 214 215 217 219 222 225 228 231 233 235 237 238 239 240 241 241 241 241 241 241 241 242 244 245 247 248 250 250 251 251 252 252 253 255 256 257 259 260 260 261 262 263 264 265 266 267 268 269 270 269 268 266 264 264 264 265 265 266 267 269 268 267 266 264 261 261 262 260 258
219 219 220 223 225 223 219 215 213 212 214 216 218 219 219 218 218 219 219 220 221 222 224 226 229 232 234 236 237 239 240 242 243 243 243 244 244 244 244 245 246 248 250 251 252 253 253 253 254 254 254 255 256 256 256 257 257 258 260 261 263 264 265 266 267 267 268 267 265 263 261 260 261 263 265 267 268 269 268 266 265 264 262 261 261 262 262
229 230 230 229 228 227 225 223 222 222 224 226 228 228 227 226 226 227 228 229 229 229 229 229 230 232 234 237 239 241 242 243 245 246 246 247 247 248 248 248 249 250 251 253 255 257 258 258 258 258 258 258 258 258 258 257 257 258 259 260 262 263 264 265 266 267 267 266 264 262 259 257 258 260 264 266 268 268 267 265 263 262 263 262 261 262 262
234 235 235 234 232 230 230 230 230 231 233 234 235 235 234 233 233 234 235 236 236 236 236 234 233 233 234 236 239 242 245 246 247 248 249 249 250 250 251 251 251 251 252 254 257 259 261 262 262 261 261 261 261 261 260 259 259 259 259 260 261 263 264 266 267 267 267 267 266 264 262 259 258 260 262 264 266 267 267 266 265 264 263 262 262 262 262
231 233 234 234 234 234 234 234 235 237 239 241 241 240 238 238 238 239 239 240 241 241 241 241 239 238 238 239 240 242 244 246 247 248 248 249 249 250 251 251 252 252 253 254 257 259 261 262 261 261 260 260 260 260 260 260 259 259 260 261 262 264 266 267 268 268 268 268 267 266 265 263 262 261 261 262 263 265 266 267 268 269 267 265 264 262 262
225 227 228 230 231 232 233 235 236 239 241 242 242 241 240 240 240 240 241 242 242 242 242 242 241 240 239 239 238 238 239 241 243 245 246 247 248 249 250 251 251 252 254 255 257 258 259 259 259 259 259 259 259 259 259 259 259 260 261 263 264 266 267 268 268 269 269 269 267 266 265 265 263 261 260 260 262 264 265 266 269 272 273 273 270 264 261
221 221 222 223 224 226 228 230 232 234 235 237 237 238 238 238 238 239 239 239 238 237 237 236 236 236 235 235 236 236 237 238 240 242 244 245 246 247 248 249 251 252 253 254 255 256 257 257 258 258 258 258 259 259 259 259 260 260 262 264 266 267 268 268 269 269 269 269 268 267 265 263 261 259 259 260 261 262 264 267 269 272 275 276 275 269 266
217 217 216 217 217 218 220 221 223 225 226 228 230 231 231 232 232 232 232 232 232 232 232 232 233 234 235 236 238 238 239 240 240 242 243 244 245 246 247 248 250 251 252 254 255 256 257 258 258 259 259 260 260 260 261 261 261 262 263 265 266 267 268 268 268 268 268 269 269 267 264 261 258 257 257 258 259 260 263 266 269 272 273 272 271 271 272
217 217 215 214 215 215 215 216 218 219 220 222 223 224 224 225 225 225 226 227 228 229 230 231 232 234 236 238 239 241 242 243 243 244 244 245 245 246 247 248 249 250 251 253 254 256 257 258 259 260 261 262 262 262 262 262 263 264 265 266 266 266 266 267 266 266 267 267 266 264 260 257 256 256 256 257 258 261 264 266 269 271 272 272 271 271 272
221 220 218 217 217 216 215 215 217 218 219 221 222 222 222 223 223 223 224 226 227 228 229 231 232 234 236 238 239 241 242 244 246 247 247 248 248 248 248 248 249 250 250 252 253 254 255 256 258 259 261 261 262 262 262 262 263 264 265 265 266 266 266 266 266 266 265 265 264 261 258 256 255 256 257 259 260 262 265 268 270 271 273 273 273 273 273
226 225 223 223 222 222 220 220 221 222 222 223 224 225 225 224 224 224 224 226 227 228 230 232 235 236 237 238 240 242 243 245 247 248 250 251 251 251 251 251 251 251 251 251 252 253 255 256 257 258 259 260 260 260 260 261 263 264 264 264 266 267 268 267 266 265 264 263 261 258 256 255 255 256 258 260 263 264 266 267 269 271 272 272 273 273 274
228 228 227 226 227 227 227 227 228 229 229 230 230 231 231 231 230 229 228 228 229 230 232 235 238 241 242 243 244 245 247 248 249 250 250 251 252 253 253 254 254 254 254 254 254 255 256 256 256 257 257 258 259 258 258 260 262 264 264 263 264 266 267 267 266 265 263 260 258 256 255 255 256 258 260 262 263 265 266 268 270 271 273 275 276 277 277
228 228 228 229 229 230 231 232 233 234 235 236 236 237 237 237 237 236 234 234 234 235 237 239 242 245 248 250 250 251 251 252 252 252 252 252 252 252 253 254 254 255 256 256 257 257 257 256 256 255 256 256 257 257 257 259 261 262 262 262 262 263 265 265 266 265 263 260 259 258 258 258 258 259 261 263 265 267 268 270 272 274 275 276 278 278 279
228 228 228 229 229 230 231 233 233 234 235 236 237 238 240 241 242 242 242 241 240 240 241 242 244 246 249 251 253 254 254 255 255 256 256 256 255 255 254 254 254 255 257 258 258 258 257 256 255 254 254 254 254 255 256 257 259 260 260 260 260 260 261 262 263 264 263 263 262 262 262 262 262 263 264 266 267 269 271 273 274 275 276 276 277 278 278
229 229 229 229 229 230 231 232 232 232 233 234 236 238 240 241 243 244 245 244 243 242 241 240 241 243 245 248 250 252 255 257 259 260 260 259 258 257 256 256 255 256 256 257 257 256 256 254 253 252 252 252 253 254 255 256 257 259 259 259 258 258 259 260 261 263 263 264 264 264 264 265 266 266 268 268 269 271 272 273 274 275 276 277 277 277 277
228 229 229 228 228 229 229 229 229 230 231 234 236 239 241 242 244 244 244 242 240 238 237 236 236 237 240 244 248 251 255 258 259 260 260 259 257 255 255 255 255 254 254 254 255 255 254 254 253 253 253 253 253 254 255 257 258 260 260 260 259 259 260 261 262 263 264 264 264 265 265 266 267 267 268 269 271 271 273 274 275 276 277 278 278 277 277
230 229 225 221 221 224 225 227 228 229 232 235 238 240 241 242 241 241 240 238 236 234 232 231 231 233 239 244 248 251 255 257 257 257 256 254 253 252 252 252 252 252 252 253 253 253 253 253 253 254 254 254 255 255 256 257 258 259 260 260 261 262 263 263 264 265 265 265 266 266 266 267 268 269 270 272 273 273 274 275 276 276 276 276 277 277 278
228 225 219 215 216 219 222 224 227 230 232 234 235 235 235 235 234 233 233 232 231 230 229 229 232 237 242 246 248 251 255 256 255 251 248 248 248 249 250 251 251 251 251 251 252 252 252 253 254 255 256 257 258 259 259 260 260 261 262 262 263 264 265 265 266 267 267 267 268 268 268 269 270 270 271 272 273 273 274 274 274 274 273 273 274 274 275
225 224 220 217 218 220 222 225 229 232 232 232 231 228 227 227 228 229 230 230 230 230 230 233 237 240 243 246 249 252 254 254 250 244 241 241 244 246 248 250 251 250 250 250 251 252 253 254 255 257 257 258 258 259 260 261 261 262 263 264 264 265 266 266 266 267 267 268 268 269 269 269 270 271 272 273 273 274 274 274 273 273 272 272 272 272 272
223 224 222 221 221 224 226 228 230 231 232 232 231 229 228 229 230 231 232 232 232 231 232 235 237 240 243 246 248 248 248 247 244 239 236 236 238 241 243 245 247 247 247 248 249 250 250 251 253 255 257 258 259 260 260 261 261 262 263 264 265 266 266 267 267 268 268 269 270 270 271 271 272 272 272 273 273 273 273 273 273 273 272 273 274 275 276
224 225 225 224 225 226 227 229 230 231 232 233 234 233 233 234 235 236 236 235 234 233 233 235 237 239 242 244 243 242 242 242 242 240 238 237 238 239 241 242 244 245 246 246 248 250 251 253 254 256 258 260 261 262 263 264 264 265 265 265 266 266 267 267 268 269 269 270 270 271 271 271 271 271 271 271 272 272 272 273 275 276 276 277 277 277 277
228 227 226 226 227 228 229 230 232 234 235 235 236 236 237 238 239 240 240 239 238 237 237 236 237 238 239 241 241 242 242 241 242 242 242 243 243 244 246 247 248 249 251 252 254 255 257 259 260 262 263 264 264 265 266 266 267 267 266 267 267 267 267 268 268 268 268 269 269 270 270 270 270 271 271 272 273 274 275 275 275 275 275 276 277 277 278
228 230 229 228 228 229 230 231 233 236 238 238 238 238 238 238 239 240 241 240 240 239 239 238 237 237 238 240 242 244 245 246 246 246 247 248 248 250 251 252 253 254 255 256 257 259 261 262 264 266 268 269 270 271 271 271 272 271 271 271 271 270 270 271 270 270 270 270 270 270 271 271 272 273 274 275 275 277 277 276 276 276 276 277 279 281 282
225 229 232 233 232 233 233 233 235 236 238 239 240 239 239 238 238 238 239 239 239 239 239 239 239 239 240 242 245 248 249 250 250 250 250 249 249 249 249 250 251 252 253 255 257 259 262 265 268 270 272 274 274 275 275 276 276 277 277 278 278 278 278 277 277 277 277 277 276 276 277 277 277 277 278 278 278 278 279 279 279 280 281 282 283 285 287
225 229 232 235 236 237 237 238 238 238 239 240 241 242 241 241 240 239 239 239 238 238 239 239 240 241 243 245 247 249 250 250 250 249 247 245 244 244 244 245 246 246 247 250 253 257 262 266 269 271 273 274 275 276 277 278 280 282 284 286 287 288 288 288 287 287 286 286 286 285 284 283 282 281 281 281 281 282 282 282 282 283 284 285 287 288 290
227 229 231 233 234 235 237 238 239 239 240 241 242 243 243 244 244 243 242 242 242 241 241 242 243 244 245 246 246 246 244 243 241 240 239 238 238 238 238 238 237 236 238 243 250 256 262 267 270 272 276 279 281 283 285 286 287 290 293 295 296 296 297 296 296 296 295 294 293 291 290 289 288 287 286 285 285 285 284 283 283 283 284 285 286 287 288
231 232 234 236 236 237 238 238 238 238 238 239 240 241 242 243 244 244 243 242 242 241 241 241 241 240 239 238 237 235 233 232 232 232 233 232 231 230 229 229 230 234 239 247 254 260 266 271 276 281 286 290 292 293 294 295 295 296 296 296 297 298 299 300 301 301 302 301 301 301 300 299 298 296 293 291 289 287 286 285 285 285 286 286 287 288 289
234 235 238 241 242 241 241 240 240 240 240 238 237 237 237 239 240 240 238 235 234 233 232 231 230 228 226 225 225 225 225 226 227 228 229 228 227 227 228 231 234 239 245 251 257 263 270 277 284 289 292 295 296 297 298 298 297 296 296 296 297 298 300 301 301 302 303 304 304 305 305 305 304 302 300 297 295 294 294 294 294 293 293 293 293 292 292
Height
5599 5603 5606 5610 5615 5619 5623 5627 5632 5637 5643 5649 5653 5657 5663 5668 5672 5678 5682 5686 5690 5693 5695 5698 5700 5703 5707 5711 5715 5718 5722 5725 5729 5732 5735 5738 5740 5742 5744 5746 5748 5749 5751 5753 5754 5756 5758 5759 5761 5762 5764 5766 5767 5768 5769 5770 5772 5773 5774 5775 5776 5777 5777 5778 5778 5779 5779 5780 5781 5781 5782 5783 5783 5784 5784 5785 5785 5785 5785 5786 5786 5787 5787 5787 5788 5787 5787
5598 5602 5607 5612 5617 5621 5625 5628 5632 5637 5641 5646 5651 5657 5662 5666 5671 5676 5680 5685 5689 5692 5694 5696 5699 5702 5706 5709 5713 5717 5720 5724 5728 5731 5734 5736 5739 5740 5742 5744 5746 5747 5749 5750 5752 5753 5755 5757 5759 5760 5762 5763 5765 5766 5767 5768 5769 5770 5772 5773 5774 5775 5775 5776 5776 5777 5777 5778 5778 5779 5780 5781 5781 5782 5782 5783 5783 5783 5784 5784 5784 5785 5785 5785 5785 5785 5785
5601 5604 5608 5613 5618 5623 5627 5631 5634 5638 5642 5646 5651 5656 5662 5667 5671 5676 5680 5683 5687 5690 5692 5695 5698 5701 5704 5708 5712 5716 5720 5724 5727 5730 5733 5735 5737 5739 5741 5743 5744 5746 5747 5748 5749 5751 5753 5754 5756 5758 5759 5761 5762 5763 5764 5766 5767 5767 5769 5770 5771 5772 5773 5774 5774 5775 5776 5776 5777 5777 5778 5779 5779 5780 5780 5780 5781 5781 5781 5782 5782 5782 5782 5782 5782 5782 5782
5602 5606 5609 5613 5618 5623 5627 5631 5635 5639 5644 5649 5653 5658 5662 5667 5672 5676 5679 5682 5685 5688 5691 5694 5697 5700 5703 5707 5711 5715 5719 5723 5726 5729 5731 5733 5735 5738 5739 5741 5742 5744 5744 5745 5746 5748 5750 5752 5754 5756 5757 5758 5759 5761 5762 5763 5764 5765 5767 5768 5769 5770 5771 5772 5772 5773 5774 5774 5775 5775 5776 5776 5777 5777 5778 5778 5778 5779 5779 5779 5780 5780 5780 5780 5780 5779 5779
5604 5607 5611 5615 5619 5622 5625 5630 5635 5640 5645 5649 5654 5659 5663 5668 5672 5675 5678 5681 5684 5687 5690 5693 5696 5699 5703 5707 5710 5714 5718 5721 5725 5727 5730 5732 5734 5736 5737 5739 5740 5741 5742 5743 5744 5746 5748 5750 5752 5753 5754 5755 5756 5758 5759 5761 5762 5763 5765 5766 5767 5768 5768 5769 5770 5771 5772 5772 5772 5773 5773 5774 5774 5775 5775 5776 5776 5776 5776 5777 5777 5777 5777 5777 5776 5776 5776
5605 5608 5612 5615 5619 5622 5625 5630 5635 5640 5645 5650 5655 5660 5664 5668 5672 5675 5677 5680 5684 5687 5690 5692 5695 5699 5703 5706 5710 5713 5716 5719 5723 5725 5728 5730 5732 5734 5735 5736 5738 5740 5740 5741 5743 5745 5747 5748 5749 5751 5752 5753 5754 5755 5757 5759 5760 5761 5762 5763 5764 5765 5766 5767 5768 5768 5769 5769 5770 5770 5771 5771 5772 5772 5773 5773 5773 5773 5774 5774 5774 5774 5774 5774 5773 5773 5772
5607 5609 5613 5616 5619 5622 5626 5630 5635 5639 5645 5650 5656 5661 5664 5667 5671 5675 5677 5680 5683 5687 5690 5693 5695 5699 5702 5705 5709 5712 5715 5717 5720 5722 5725 5728 5730 5731 5733 5735 5737 5738 5739 5740 5742 5743 5745 5746 5747 5748 5750 5751 5753 5754 5755 5757 5758 5759 5760 5761 5762 5763 5764 5764 5765 5765 5766 5766 5767 5767 5768 5769 5769 5770 5770 5770 5771 5771 5771 5771 5771 5771 5771 5770 5770 5769 5769
5608 5611 5614 5617 5620 5624 5628 5632 5636 5639 5643 5648 5652 5658 5661 5665 5670 5674 5677 5680 5683 5686 5690 5693 5695 5698 5701 5704 5707 5710 5713 5715 5718 5720 5722 5725 5727 5729 5730 5733 5735 5736 5737 5738 5740 5741 5743 5744 5745 5746 5748 5749 5750 5751 5753 5754 5755 5756 5757 5758 5759 5760 5760 5761 5761 5762 5762 5763 5764 5764 5765 5766 5766 5767 5767 5768 5768 5768 5768 5768 5768 5768 5767 5767 5766 5766 5765
5609 5612 5616 5620 5623 5626 5629 5632 5636 5639 5643 5647 5651 5656 5659 5663 5668 5673 5676 5679 5683 5686 5689 5692 5695 5698 5701 5703 5706 5709 5711 5713 5715 5718 5720 5722 5724 5726 5728 5730 5732 5734 5735 5736 5738 5739 5741 5742 5743 5744 5745 5746 5748 5749 5750 5751 5752 5753 5754 5755 5756 5756 5757 5757 5757 5758 5759 5760 5760 5761 5762 5762 5763 5764 5765 5765 5765 5765 5765 5765 5764 5764 5764 5763 5762 5762 5761
5611 5615 5618 5621 5623 5626 5629 5632 5636 5640 5644 5648 5652 5656 5659 5663 5667 5671 5675 5678 5682 5685 5688 5692 5695 5697 5700 5703 5705 5707 5709 5711 5714 5716 5718 5720 5722 5725 5727 5729 5730 5732 5733 5734 5736 5737 5738 5739 5740 5741 5742 5743 5745 5746 5747 5748 5749 5750 5751 5752 5752 5752 5752 5753 5754 5755 5755 5756 5756 5757 5758 5759 5760 5761 5761 5761 5761 5761 5761 5761 5760 5760 5760 5759 5759 5758 5757
5613 5617 5619 5621 5623 5626 5630 5633 5637 5641 5645 5648 5652 5656 5659 5662 5666 5670 5673 5677 5681 5684 5687 5691 5693 5696 5698 5701 5703 5705 5707 5710 5712 5714 5716 5718 5720 5722 5724 5726 5728 5729 5731 5732 5733 5734 5735 5736 5737 5738 5739 5740 5741 5742 5744 5745 5746 5747 5747 5748 5748 5748 5748 5749 5751 5751 5752 5752 5753 5753 5754 5755 5757 5757 5757 5758 5757 5757 5757 5757 5756 5756 5756 5756 5755 5754 5754
5615 5618 5621 5623 5625 5628 5631 5634 5637 5641 5644 5648 5651 5654 5657 5661 5665 5669 5673 5676 5679 5683 5686 5689 5692 5694 5697 5700 5702 5704 5706 5708 5710 5712 5713 5715 5717 5719 5721 5723 5725 5726 5728 5729 5729 5730 5731 5732 5733 5734 5735 5736 5737 5738 5740 5741 5742 5743 5743 5744 5745 5744 5744 5746 5747 5747 5748 5749 5749 5750 5751 5751 5752 5753 5753 5753 5753 5753 5753 5753 5752 5752 5752 5752 5751 5751 5750
5617 5619 5622 5625 5627 5629 5632 5635 5638 5641 5645 5648 5651 5653 5657 5661 5665 5669 5672 5676 5678 5681 5685 5688 5691 5693 5696 5698 5701 5703 5704 5706 5707 5709 5711 5713 5715 5717 5718 5720 5722 5723 5724 5725 5726 5726 5727 5729 5730 5731 5732 5733 5734 5735 5736 5737 5738 5739 5740 5741 5741 5741 5741 5742 5743 5743 5744 5745 5746 5746 5747 5748 5748 5748 5748 5749 5749 5749 5748 5748 5748 5748 5748 5748 5747 5747 5747
5618 5620 5623 5625 5628 5630 5633 5636 5639 5642 5645 5647 5650 5654 5658 5661 5665 5668 5672 5675 5678 5681 5684 5687 5690 5692 5694 5697 5699 5701 5703 5704 5706 5707 5708 5710 5712 5714 5716 5717 5718 5719 5720 5722 5723 5724 5725 5726 5727 5728 5729 5730 5731 5732 5733 5734 5734 5735 5736 5737 5738 5737 5738 5739 5740 5740 5741 5742 5742 5743 5743 5744 5744 5745 5744 5744 5745 5745 5745 5744 5745 5744 5744 5744 5743 5743 5743
5618 5620 5623 5625 5628 5631 5634 5637 5639 5642 5644 5647 5650 5654 5658 5661 5665 5668 5671 5674 5677 5680 5683 5686 5688 5691 5693 5695 5697 5699 5701 5703 5704 5705 5706 5708 5709 5711 5713 5714 5715 5716 5717 5719 5720 5722 5723 5724 5724 5725 5726 5727 5728 5729 5730 5730 5731 5731 5733 5734 5735 5734 5734 5735 5736 5737 5738 5739 5739 5739 5739 5740 5741 5741 5741 5740 5740 5741 5741 5741 5741 5741 5741 5740 5740 5739 5739
5618 5620 5622 5625 5628 5631 5634 5637 5639 5642 5645 5648 5651 5654 5657 5660 5664 5667 5670 5673 5675 5678 5681 5684 5687 5689 5691 5693 5695 5698 5700 5701 5702 5703 5704 5706 5707 5709 5710 5712 5713 5714 5715 5716 5717 5719 5720 5721 5722 5722 5723 5724 5725 5726 5726 5727 5727 5728 5729 5731 5731 5731 5731 5732 5733 5734 5735 5735 5736 5736 5736 5737 5737 5737 5737 5736 5736 5737 5737 5738 5738 5737 5737 5737 5736 5735 5735
5618 5620 5623 5626 5628 5631 5634 5636 5639 5642 5645 5648 5651 5653 5656 5660 5662 5665 5668 5671 5673 5676 5679 5682 5684 5686 5688 5691 5693 5695 5697 5698 5700 5701 5702 5703 5705 5707 5708 5710 5711 5712 5713 5714 5715 5716 5717 5718 5719 5720 5720 5721 5722 5723 5723 5724 5725 5725 5726 5727 5728 5728 5728 5729 5730 5730 5731 5732 5732 5732 5732 5733 5733 5733 5733 5733 5733 5733 5734 5734 5734 5733 5733 5733 5732 5731 5731
5619 5621 5623 5626 5628 5631 5633 5636 5639 5642 5645 5648 5650 5653 5656 5658 5661 5664 5666 5669 5671 5674 5677 5679 5682 5684 5686 5688 5690 5692 5693 5695 5697 5698 5700 5701 5703 5704 5706 5707 5709 5710 5711 5712 5712 5713 5714 5714 5715 5716 5717 5718 5719 5720 5720 5721 5722 5722 5723 5724 5725 5725 5726 5726 5727 5727 5728 5728 5728 5729 5729 5729 5730 5729 5729 5729 5729 5729 5730 5730 5729 5729 5729 5729 5728 5728 5727
5619 5621 5623 5625 5628 5631 5633 5636 5638 5641 5644 5647 5649 5652 5654 5657 5660 5662 5664 5667 5669 5672 5674 5676 5679 5681 5683 5685 5687 5689 5690 5692 5693 5695 5696 5698 5700 5701 5703 5704 5706 5707 5708 5709 5709 5710 5711 5711 5712 5713 5714 5715 5716 5716 5716 5717 5718 5719 5720 5721 5721 5722 5723 5723 5724 5724 5724 5725 5725 5725 5726 5726 5726 5726 5726 5725 5726 5726 5726 5726 5726 5725 5725 5725 5725 5724 5723
5619 5620 5622 5625 5627 5630 5633 5635 5638 5640 5643 5645 5648 5650 5653 5655 5658 5660 5662 5665 5667 5669 5671 5673 5675 5678 5679 5681 5683 5685 5686 5688 5690 5691 5693 5694 5696 5698 5699 5701 5702 5703 5704 5705 5706 5706 5707 5708 5709 5709 5710 5711 5712 5712 5712 5713 5714 5716 5716 5717 5717 5718 5719 5720 5720 5721 5721 5721 5721 5722 5722 5722 5722 5722 5722 5722 5722 5722 5722 5722 5722 5722 5722 5721 5721 5720 5720
5619 5620 5622 5624 5626 5629 5632 5634 5636 5639 5641 5644 5646 5649 5651 5653 5655 5658 5660 5662 5664 5666 5668 5670 5672 5674 5676 5678 5679 5681 5683 5684 5686 5687 5689 5691 5692 5694 5695 5697 5698 5699 5700 5701 5702 5703 5703 5704 5705 5706 5706 5707 5707 5708 5708 5709 5710 5712 5712 5712 5713 5714 5715 5716 5716 5716 5717 5717 5718 5718 5718 5718 5718 5719 5719 5719 5718 5718 5719 5719 5718 5718 5718 5718 5717 5717 5717
5619 5621 5623 5624 5626 5628 5630 5633 5635 5637 5640 5642 5645 5647 5649 5651 5653 5655 5657 5659 5661 5663 5665 5667 5669 5671 5672 5674 5676 5677 5679 5681 5682 5684 5686 5687 5689 5690 5692 5693 5694 5695 5696 5697 5698 5699 5700 5700 5701 5702 5703 5703 5703 5704 5705 5706 5707 5707 5708 5708 5709 5709 5710 5711 5712 5712 5712 5713 5714 5714 5714 5714 5714 5715 5715 5715 5714 5715 5715 5714 5714 5714 5714 5714 5714 5714 5714
5619 5621 5623 5625 5626 5628 5630 5632 5634 5636 5639 5641 5643 5645 5647 5649 5651 5653 5655 5656 5658 5660 5662 5664 5665 5667 5669 5670 5672 5674 5675 5677 5679 5681 5682 5684 5685 5687 5688 5689 5690 5691 5692 5693 5694 5695 5696 5697 5698 5698 5699 5699 5700 5700 5701 5702 5703 5703 5703 5703 5704 5705 5705 5706 5706 5707 5707 5708 5709 5710 5710 5710 5710 5710 5710 5710 5710 5710 5710 5710 5710 5710 5710 5710 5710 5710 5710
5618 5620 5622 5624 5626 5628 5630 5631 5633 5635 5637 5639 5641 5643 5645 5647 5648 5650 5652 5653 5655 5657 5659 5660 5662 5663 5665 5667 5668 5670 5672 5673 5675 5677 5678 5680 5681 5683 5684 5686 5687 5688 5688 5689 5690 5691 5692 5693 5694 5695 5695 5696 5696 5697 5698 5698 5698 5698 5698 5698 5699 5699 5700 5700 5701 5702 5703 5704 5704 5705 5706 5706 5706 5706 5706 5706 5706 5706 5706 5706 5706 5706 5706 5706 5706 5706 5706
5617 5619 5621 5623 5625 5627 5629 5630 5632 5634 5636 5638 5640 5641 5643 5645 5646 5648 5650 5651 5653 5654 5656 5658 5659 5660 5662 5663 5665 5667 5668 5670 5671 5673 5675 5676 5678 5679 5680 5682 5683 5683 5684 5685 5685 5686 5687 5688 5689 5690 5691 5692 5692 5693 5693 5693 5693 5693 5693 5693 5694 5694 5694 5695 5695 5697 5698 5698 5699 5700 5700 5701 5701 5701 5702 5702 5702 5702 5702 5702 5701 5701 5702 5702 5701 5701 5701
5616 5618 5620 5621 5623 5625 5627 5629 5630 5632 5634 5636 5637 5639 5641 5643 5644 5646 5647 5649 5651 5652 5654 5655 5657 5658 5659 5661 5662 5663 5665 5666 5668 5669 5671 5672 5673 5675 5676 5677 5678 5679 5680 5680 5681 5682 5683 5684 5685 5686 5687 5687 5688 5688 5688 5689 5688 5688 5688 5689 5689 5689 5689 5690 5690 5691 5692 5693 5693 5694 5695 5696 5696 5696 5696 5697 5697 5697 5697 5697 5697 5697 5697 5697 5697 5697 5696
5614 5616 5618 5619 5621 5623 5624 5626 5628 5629 5631 5633 5634 5636 5638 5640 5641 5643 5644 5646 5648 5649 5651 5653 5654 5656 5657 5658 5659 5661 5662 5663 5664 5666 5667 5668 5669 5670 5671 5673 5674 5675 5675 5676 5677 5677 5678 5680 5681 5681 5682 5683 5683 5683 5683 5684 5684 5684 5684 5685 5685 5685 5685 5685 5686 5686 5687 5688 5688 5689 5690 5691 5691 5691 5691 5692 5692 5692 5692 5692 5692 5692 5692 5692 5692 5692 5691
5611 5613 5615 5617 5618 5620 5622 5623 5625 5626 5628 5630 5631 5633 5635 5636 5638 5639 5641 5643 5644 5646 5648 5650 5651 5653 5654 5655 5657 5658 5659 5660 5661 5662 5663 5664 5665 5666 5667 5668 5669 5670 5671 5672 5673 5673 5674 5675 5676 5677 5678 5678 5678 5679 5679 5679 5680 5680 5680 5681 5681 5681 5681 5681 5682 5682 5682 5682 5683 5684 5684 5685 5685 5686 5686 5687 5687 5687 5686 5686 5686 5686 5686 5686 5686 5686 5686
5608 5610 5611 5613 5615 5617 5618 5620 5622 5623 5625 5627 5628 5630 5631 5633 5635 5636 5638 5639 5641 5642 5644 5645 5647 5649 5651 5652 5653 5654 5655 5656 5657 5658 5659 5660 5661 5662 5663 5663 5664 5666 5667 5668 5669 5669 5670 5671 5671 5672 5673 5673 5674 5674 5674 5675 5675 5676 5676 5677 5677 5676 5676 5677 5677 5677 5677 5678 5679 5679 5679 5679 5680 5681 5681 5681 5681 5681 5681 5681 5681 5680 5680 5680 5680 5679 5679
5605 5607 5608 5610 5611 5613 5615 5616 5618 5620 5621 5623 5625 5626 5628 5629 5631 5632 5634 5636 5637 5639 5640 5642 5643 5645 5646 5648 5649 5650 5651 5652 5653 5654 5655 5656 5657 5657 5658 5659 5660 5661 5663 5664 5664 5665 5666 5666 5667 5667 5668 5669 5669 5669 5670 5670 5671 5671 5672 5672 5672 5672 5672 5672 5673 5673 5673 5673 5674 5674 5674 5675 5675 5675 5675 5675 5676 5676 5675 5675 5675 5675 5674 5674 5673 5673 5673
5603 5604 5606 5607 5608 5610 5611 5613 5615 5616 5618 5619 5621 5622 5624 5626 5627 5629 5630 5632 5633 5635 5636 5638 5639 5640 5642 5643 5645 5646 5647 5648 5649 5650 5650 5651 5652 5653 5654 5655 5656 5657 5658 5659 5660 5660 5661 5662 5662 5663 5663 5664 5664 5665 5665 5666 5666 5666 5667 5667 5667 5667 5667 5668 5668 5668 5668 5668 5668 5668 5669 5670 5670 5670 5670 5670 5670 5670 5670 5669 5669 5669 5669 5669 5668 5667 5667
5602 5603 5604 5605 5606 5607 5609 5610 5612 5613 5615 5616 5618 5620 5621 5623 5624 5626 5627 5628 5630 5631 5633 5634 5635 5637 5638 5639 5641 5642 5643 5644 5645 5646 5646 5647 5648 5649 5650 5651 5652 5653 5653 5654 5655 5655 5656 5657 5657 5658 5658 5659 5659 5660 5660 5661 5661 5661 5662 5663 5663 5662 5662 5662 5663 5663 5663 5663 5663 5663 5664 5664 5664 5665 5665 5665 5665 5665 5664 5664 5664 5663 5663 5663 5663 5663 5663
5601 5601 5602 5603 5604 5606 5607 5608 5610 5611 5612 5614 5615 5617 5619 5620 5621 5623 5624 5626 5627 5628 5629 5631 5632 5633 5634 5635 5637 5638 5639 5640 5641 5641 5642 5643 5644 5645 5646 5647 5647 5648 5649 5650 5650 5651 5651 5652 5653 5653 5654 5654 5655 5655 5655 5656 5656 5656 5657 5658 5658 5657 5657 5657 5657 5658 5658 5658 5658 5658 5658 5658 5659 5659 5659 5659 5659 5659 5659 5659 5658 5658 5658 5658 5658 5658 5658
5599 5600 5601 5602 5603 5604 5605 5606 5608 5609 5610 5611 5613 5614 5616 5617 5619 5620 5622 5623 5624 5625 5626 5627 5628 5629 5630 5632 5633 5634 5635 5636 5637 5637 5638 5639 5640 5641 5641 5642 5643 5644 5645 5645 5646 5646 5647 5648 5648 5649 5649 5650 5650 5650 5651 5651 5651 5652 5653 5653 5653 5652 5653 5653 5653 5653 5653 5653 5653 5653 5654 5654 5654 5654 5654 5654 5654 5654 5654 5653 5653 5653 5653 5652 5652 5652 5652
5597 5598 5599 5600 5601 5602 5603 5604 5605 5606 5607 5609 5610 5611 5613 5614 5616 5618 5619 5620 5621 5622 5623 5624 5624 5625 5627 5628 5630 5631 5632 5632 5633 5634 5634 5635 5636 5636 5637 5638 5639 5639 5640 5641 5641 5642 5643 5643 5644 5644 5645 5645 5645 5646 5646 5646 5646 5647 5648 5648 5648 5648 5648 5648 5648 5648 5648 5649 5649 5649 5649 5649 5649 5649 5649 5649 5649 5649 5649 5648 5648 5647 5647 5647 5647 5646 5646
5594 5595 5596 5597 5598 5599 5600 5602 5603 5604 5605 5606 5607 5609 5610 5611 5613 5614 5616 5617 5618 5619 5620 5621 5621 5622 5623 5625 5626 5627 5628 5629 5629 5630 5631 5631 5632 5632 5633 5633 5634 5635 5635 5636 5637 5637 5638 5639 5639 5639 5640 5640 5640 5641 5641 5642 5642 5643 5643 5644 5644 5643 5643 5644 5644 5644 5644 5644 5644 5644 5644 5644 5644 5645 5645 5645 5644 5644 5644 5643 5643 5642 5642 5642 5641 5641 5640
5591 5592 5594 5595 5596 5597 5598 5599 5600 5601 5602 5603 5605 5606 5607 5608 5609 5611 5612 5613 5615 5616 5617 5618 5619 5619 5620 5621 5622 5623 5624 5625 5626 5626 5627 5627 5628 5628 5629 5629 5629 5630 5631 5631 5632 5633 5633 5634 5634 5634 5635 5635 5636 5636 5637 5637 5638 5638 5639 5639 5639 5639 5639 5639 5639 5639 5639 5639 5639 5639 5639 5640 5640 5640 5640 5640 5639 5639 5638 5638 5638 5637 5637 5636 5636 5635 5634
5588 5590 5591 5592 5593 5594 5596 5597 5598 5599 5600 5601 5602 5603 5604 5605 5606 5607 5609 5610 5611 5612 5613 5614 5615 5616 5616 5617 5618 5619 5620 5621 5621 5622 5622 5623 5623 5624 5624 5625 5625 5625 5626 5627 5627 5628 5628 5629 5629 5630 5630 5630 5631 5631 5632 5633 5633 5634 5634 5634 5635 5635 5635 5635 5635 5635 5635 5635 5635 5635 5635 5635 5635 5635 5635 5635 5634 5634 5633 5633 5632 5632 5631 5631 5630 5630 5629
5586 5587 5588 5589 5590 5592 5593 5594 5595 5596 5597 5598 5599 5600 5601 5602 5603 5604 5605 5606 5608 5609 5610 5611 5612 5612 5613 5614 5615 5615 5616 5617 5617 5618 5618 5619 5619 5620 5620 5620 5621 5621 5622 5622 5622 5623 5623 5624 5624 5625 5625 5626 5627 5627 5627 5628 5628 5629 5629 5630 5630 5630 5630 5631 5631 5631 5631 5631 5631 5631 5631 5631 5630 5630 5630 5629 5629 5629 5628 5628 5627 5627 5626 5625 5625 5624 5623
5583 5584 5585 5586 5587 5589 5590 5591 5592 5593 5594 5595 5596 5597 5598 5599 5600 5601 5602 5603 5604 5605 5606 5607 5608 5609 5610 5611 5612 5612 5613 5613 5614 5614 5614 5615 5616 5616 5616 5617 5617 5617 5617 5618 5618 5619 5619 5620 5620 5621 5621 5622 5622 5623 5623 5624 5624 5625 5625 5625 5625 5626 5626 5626 5626 5626 5626 5626 5626 5626 5626 5626 5625 5625 5625 5624 5624 5623 5623 5622 5622 5621 5620 5619 5619 5618 5617
5580 5581 5582 5583 5585 5586 5587 5588 5590 5591 5592 5593 5594 5594 5595 5596 5597 5598 5599 5600 5601 5602 5603 5605 5606 5607 5608 5608 5609 5609 5610 5610 5610 5611 5611 5612 5612 5613 5613 5613 5614 5614 5614 5614 5615 5615 5616 5616 5616 5617 5617 5618 5619 5619 5619 5620 5620 5621 5621 5621 5621 5621 5622 5622 5622 5622 5622 5621 5621 5621 5621 5620 5620 5620 5619 5619 5618 5618 5617 5616 5616 5615 5614 5613 5612 5612 5611
5578 5579 5580 5581 5582 5584 5585 5586 5587 5588 5589 5590 5591 5592 5593 5594 5595 5595 5596 5597 5598 5600 5601 5602 5603 5604 5605 5605 5606 5606 5607 5607 5607 5608 5608 5608 5609 5609 5610 5610 5611 5611 5611 5612 5612 5612 5613 5613 5613 5614 5614 5615 5615 5615 5616 5616 5616 5617 5617 5617 5617 5617 5617 5617 5617 5617 5617 5617 5616 5616 5616 5615 5615 5614 5614 5613 5612 5612 5611 5610 5609 5609 5608 5607 5606 5606 5605
5576 5577 5578 5579 5580 5582 5583 5584 5585 5586 5587 5588 5589 5590 5591 5592 5592 5593 5594 5595 5596 5598 5599 5600 5601 5601 5602 5602 5603 5603 5604 5604 5604 5604 5605 5605 5606 5606 5607 5607 5608 5608 5609 5609 5609 5609 5610 5610 5610 5610 5611 5611 5611 5612 5612 5612 5612 5613 5613 5613 5613 5613 5613 5612 5612 5612 5612 5611 5611 5611 5610 5610 5609 5609 5608 5607 5607 5606 5605 5604 5603 5602 5602 5601 5600 5600 5599
5574 5575 5576 5577 5579 5580 5581 5582 5583 5584 5585 5586 5587 5588 5589 5590 5590 5591 5592 5593 5594 5595 5596 5597 5598 5598 5599 5599 5600 5600 5601 5601 5601 5601 5602 5602 5603 5603 5604 5604 5605 5605 5606 5606 5606 5606 5607 5607 5607 5607 5607 5607 5608 5608 5608 5608 5608 5608 5608 5608 5608 5608 5608 5608 5607 5607 5607 5606 5606 5605 5605 5604 5604 5603 5603 5602 5601 5600 5599 5598 5597 5597 5596 5595 5595 5594 5593
5571 5572 5574 5575 5576 5577 5578 5580 5580 5581 5582 5583 5584 5585 5586 5587 5588 5589 5590 5591 5591 5592 5593 5594 5595 5595 5596 5596 5597 5597 5598 5598 5598 5599 5599 5599 5600 5601 5601 5601 5602 5602 5603 5603 5603 5603 5603 5604 5604 5604 5604 5604 5604 5604 5604 5604 5604 5604 5604 5604 5603 5603 5603 5603 5602 5602 5602 5601 5601 5600 5600 5599 5599 5598 5597 5596 5596 5595 5594 5593 5592 5591 5591 5590 5589 5588 5587
5569 5570 5571 5573 5574 5575 5576 5577 5578 5579 5580 5581 5582 5583 5583 5584 5585 5586 5587 5588 5589 5589 5590 5591 5592 5592 5593 5594 5594 5594 5595 5595 5596 5596 5596 5597 5597 5598 5598 5599 5599 5599 5600 5600 5600 5600 5600 5601 5601 5601 5601 5601 5601 5601 5601 5600 5600 5600 5600 5599 5599 5599 5598 5598 5598 5597 5597 5596 5596 5595 5595 5594 5593 5593 5592 5591 5590 5590 5589 5588 5588 5587 5586 5585 5584 5583 5582
5567 5568 5569 5570 5571 5572 5573 5574 5575 5576 5577 5578 5579 5580 5581 5581 5582 5583 5584 5585 5586 5587 5587 5588 5589 5590 5590 5591 5591 5592 5592 5592 5593 5593 5594 5594 5594 5595 5595 5595 5596 5596 5596 5597 5597 5597 5597 5597 5597 5597 5597 5597 5597 5597 5597 5596 5596 5595 5595 5595 5595 5594 5594 5593 5593 5592 5592 5591 5591 5590 5590 5589 5588 5588 5587 5587 5586 5585 5585 5584 5583 5582 5581 5580 5579 5578 5577
5565 5566 5567 5568 5569 5569 5570 5571 5572 5573 5574 5575 5576 5577 5578 5578 5579 5580 5581 5582 5583 5584 5584 5585 5586 5587 5587 5588 5588 5589 5589 5589 5590 5590 5591 5591 5591 5592 5592 5592 5592 5593 5593 5593 5593 5594 5594 5594 5594 5594 5594 5594 5594 5593 5593 5593 5592 5592 5591 5591 5590 5590 5590 5589 5589 5588 5587 5587 5586 5586 5585 5584 5584 5583 5583 5582 5582 5581 5580 5579 5579 5578 5577 5576 5575 5574 5573
5563 5564 5565 5566 5566 5567 5568 5569 5570 5570 5571 5572 5573 5574 5574 5575 5576 5577 5578 5579 5580 5580 5581 5582 5583 5583 5584 5585 5585 5585 5586 5586 5587 5587 5588 5588 5588 5589 5589 5589 5590 5590 5591 5591 5591 5591 5591 5591 5591 5591 5591 5591 5591 5591 5590 5590 5590 5589 5588 5588 5587 5587 5586 5585 5585 5584 5583 5583 5582 5582 5581 5580 5580 5579 5579 5578 5577 5577 5576 5575 5575 5574 5573 5572 5572 5571 5570
5561 5562 5562 5563 5564 5565 5566 5566 5567 5568 5568 5569 5570 5570 5571 5572 5573 5574 5575 5576 5577 5577 5578 5579 5580 5580 5581 5582 5582 5583 5583 5583 5584 5584 5585 5585 5586 5586 5587 5587 5588 5588 5588 5588 5588 5588 5589 5589 5589 5589 5589 5588 5588 5588 5588 5587 5587 5586 5586 5585 5585 5584 5583 5583 5582 5581 5581 5580 5579 5578 5578 5577 5576 5575 5575 5574 5573 5573 5572 5572 5571 5570 5569 5569 5568 5567 5566
5559 5559 5560 5561 5562 5563 5563 5564 5565 5565 5566 5566 5567 5568 5569 5569 5570 5571 5572 5573 5574 5574 5575 5576 5577 5578 5578 5579 5579 5580 5581 5581 5582 5582 5582 5583 5583 5584 5584 5585 5585 5585 5586 5586 5586 5586 5586 5586 5586 5586 5586 5586 5585 5585 5585 5584 5584 5584 5583 5583 5582 5581 5581 5580 5580 5579 5578 5577 5577 5576 5575 5574 5573 5572 5572 5571 5570 5570 5569 5568 5568 5567 5566 5565 5565 5564 5563
5557 5557 5558 5559 5559 5560 5561 5562 5562 5563 5563 5564 5565 5565 5566 5567 5568 5569 5569 5570 5571 5572 5572 5573 5574 5575 5576 5577 5577 5578 5578 5579 5579 5580 5580 5581 5581 5582 5582 5583 5583 5583 5583 5583 5584 5584 5583 5583 5583 5583 5583 5583 5583 5582 5582 5582 5581 5581 5581 5580 5580 5579 5579 5578 5577 5576 5576 5575 5574 5574 5573 5572 5571 5571 5570 5569 5569 5568 5567 5566 5565 5564 5564 5563 5562 5561 5560